Regional Weather Roundup
Issued by NWS

Home | Current Version | Previous Version | Graphics & Text | Print | Product List | Glossary On
Versions: 1 2 3 4 5 6 7 8 9 10 11 12 13 14 15 16 17 18 19 20 21 22 23 24 25 26 27 28 29 30 31 32 33 34 35 36 37 38 39 40 41 42 43 44 45 46 47 48 49 50
000
ASUS43 KTOP 300359
RWRKS

WEATHER ROUNDUP FOR KANSAS
NATIONAL WEATHER SERVICE GOODLAND KS
1100 PM CDT TUE JUL 29 2014

NOTE:  "FAIR" INDICATES FEW OR NO CLOUDS BELOW 12,000 FEET WITH NO
SIGNIFICANT WEATHER AND/OR OBSTRUCTIONS TO VISIBILITY.

KSZ001>006-013>018-027>032-041>047-300500-
NORTHWEST KANSAS

CITY           SKY/WX    TMP DP  RH WIND       PRES   REMARKS
GOODLAND       LGT RAIN  71  63  75 E8        30.15R
HAYS           CLOUDY    75  55  50 E14       30.12S
HILL CITY      CLOUDY    75  57  53 E13       30.13R
RUSSELL        CLOUDY    74  58  57 E9        30.11R
$$

KSZ061>065-074>080-084>089-300500-
SOUTHWEST KANSAS

CITY           SKY/WX    TMP DP  RH WIND       PRES   REMARKS
DODGE CITY     CLOUDY    69  58  67 S7        30.12R
ELKHART          N/A    N/A N/A N/A MISG        N/A
GARDEN CITY    CLOUDY    70  62  76 SE10      30.12R
GREAT BEND     CLOUDY    75  61  60 CALM      30.10R
LIBERAL        CLOUDY    70  61  73 SE12      30.13S
$$

KSZ066>073-081>083-090>101-300500-
SOUTHEAST KANSAS

CITY           SKY/WX    TMP DP  RH WIND       PRES   REMARKS
CHANUTE        MOCLDY    65  61  87 CALM      30.10R
COFFEYVILLE    PTCLDY    70  62  76 E5        30.09R
HUTCHINSON     CLOUDY    74  59  59 E13       30.10R
NEWTON         CLOUDY    72  54  53 SE8       30.15R
PARSONS        MOCLDY    69  62  78 CALM      30.10R
WICHITA INTL   MOCLDY    75  64  68 E13       30.09R
WICHITA JABRA  MOCLDY    72  60  66 SE7       30.11R
WINFIELD       MOCLDY    75  62  64 SE6       30.11R
$$

KSZ007>012-019>026-033>040-048>060-102>105-300500-
NORTHEAST KANSAS

CITY           SKY/WX    TMP DP  RH WIND       PRES   REMARKS
CONCORDIA      CLOUDY    70  59  68 E6        30.13R
EMPORIA        MOCLDY    65  59  81 S5        30.11R
LAWRENCE       PTCLDY    67  60  78 CALM      30.11R
MANHATTAN      MOCLDY    72  60  66 NE3       30.11R
OLATHE IND     CLOUDY    71  58  63 NE5       30.12R
OLATHE EXE     CLOUDY    72  58  61 NE5       30.11R
SALINA         CLOUDY    76  59  55 E9        30.11R
TOPEKA BILLARD PTCLDY    72  61  68 CALM      30.11R
TOPEKA FORBES  CLOUDY    71  59  65 E3        30.11R
$$



USA.gov is the U.S. government's official web portal to all federal, state and local government web resources and services.